C4984 Weather Reports


Display with metric or nautical units.
time (UTC)temp
F
wind
direction
speed
MPH
gust
MPH
rain 1hr
in
rain 24hr
in
rain mn
in
humidity
%
barometer
mb
20260508235234 65 44 0.0 0.0 0.00 0.00 0.00 53 1009.6
20260508234227 66 105 0.0 0.0 0.00 0.00 0.00 51 1009.3
20260508224628 70 126 0.0 3.0 0.00 0.00 0.00 45 1009.3
20260508222539 71 189 0.0 5.0 0.00 0.00 0.00 41 1009.0
20260508220417 71 93 0.0 4.0 0.00 0.00 0.00 42 1008.9
20260508215438 71 160 0.0 3.0 0.00 0.00 0.00 45 1008.9
20260508214421 71 182 0.0 6.0 0.00 0.00 0.00 43 1008.9
20260508213402 72 213 1.0 9.0 0.00 0.00 0.00 42 1008.9
20260508212337 72 127 1.0 9.0 0.00 0.00 0.00 42 1008.9
20260508211347 72 117 1.0 4.0 0.00 0.00 0.00 42 1009.2
20260508205148 73 150 0.0 5.0 0.00 0.00 0.00 40 1009.4
20260508204133 73 150 1.0 5.0 0.00 0.00 0.00 40 1009.4
20260508203118 73 307 0.0 5.0 0.00 0.00 0.00 39 1009.4
20260508202109 72 135 1.0 5.0 0.00 0.00 0.00 39 1009.4
20260508201107 72 110 1.0 5.0 0.00 0.00 0.00 40 1009.4
20260508194909 72 110 1.0 6.0 0.00 0.00 0.00 42 1009.7
20260508192755 72 169 1.0 4.0 0.00 0.01 0.00 44 1009.9
20260508191813 72 1 1.0 4.0 0.00 0.01 0.00 44 1009.9
20260508190748 72 143 1.0 4.0 0.00 0.01 0.00 44 1010.2
20260508185714 72 42 1.0 4.0 0.00 0.01 0.00 47 1010.4
20260508182500 70 56 1.0 6.0 0.00 0.02 0.00 41 1010.9
20260508181525 70 184 1.0 3.0 0.00 0.02 0.00 40 1010.9
20260508174300 70 146 0.0 4.0 0.00 0.03 0.00 45 1011.1
20260508173246 69 184 0.0 3.0 0.00 0.03 0.00 45 1011.1
20260508172300 69 216 0.0 3.0 0.00 0.03 0.00 50 1011.2
20260508171228 68 105 0.0 3.0 0.00 0.03 0.00 53 1011.6
20260508170230 68 242 0.0 3.0 0.00 0.04 0.00 46 1011.6
20260508165206 67 3 1.0 3.0 0.00 0.04 0.00 55 1011.8
20260508164213 67 356 0.0 3.0 0.00 0.05 0.00 53 1012.1
20260508163233 67 322 0.0 5.0 0.00 0.05 0.00 48 1012.1
20260508162235 67 174 1.0 5.0 0.00 0.06 0.00 49 1012.2
20260508161235 67 4 0.0 3.0 0.00 0.06 0.00 51 1012.3
20260508160252 67 118 0.0 1.0 0.00 0.07 0.00 53 1012.3
20260508155244 66 208 0.0 2.0 0.00 0.07 0.00 57 1012.6
20260508153141 65 303 1.0 3.0 0.00 0.09 0.00 60 1012.6
20260508151016 64 330 1.0 6.0 0.00 0.11 0.00 63 1012.6
20260508144855 64 167 0.0 2.0 0.00 0.13 0.00 66 1012.6
20260508142704 62 350 0.0 0.0 0.00 0.14 0.00 73 1012.5
20260508140533 61 356 1.0 3.0 0.00 0.16 0.00 71 1012.3
20260508135517 60 345 0.0 3.0 0.00 0.17 0.00 74 1012.3
20260508134519 59 1 0.0 1.0 0.00 0.18 0.00 76 1012.3
20260508133515 57 1 0.0 2.0 0.00 0.18 0.00 82 1012.3
20260508132454 55 179 0.0 2.0 0.00 0.19 0.00 88 1012.3
20260508130344 51 195 0.0 1.0 0.00 0.19 0.00 96 1012.4
20260508125322 51 120 0.0 1.0 0.00 0.19 0.00 98 1012.3
20260508124253 50 92 0.0 2.0 0.00 0.19 0.00 98 1012.2
20260508123255 50 138 0.0 0.0 0.00 0.19 0.00 98 1012.2
20260508120034 49 215 0.0 1.0 0.00 0.21 0.00 99 1011.9
20260508113939 49 111 0.0 0.0 0.00 0.27 0.00 99 1011.3
20260508111803 48 191 0.0 0.0 0.00 0.35 0.00 98 1011.1
20260508105614 48 191 0.0 0.0 0.00 0.39 0.00 98 1010.7
20260508104636 48 201 0.0 0.0 0.00 0.41 0.00 98 1010.7
20260508103654 48 116 0.0 0.0 0.00 0.44 0.00 98 1010.3
20260508102713 49 116 0.0 0.0 0.00 0.44 0.00 98 1010.2
20260508101707 49 106 0.0 0.0 0.00 0.44 0.00 98 1010.2
20260508100648 49 122 0.0 0.0 0.00 0.44 0.00 98 1010.1
20260508095618 49 122 0.0 0.0 0.00 0.44 0.00 98 1010.1
20260508094631 50 122 0.0 0.0 0.00 0.44 0.00 98 1010.1
20260508093639 50 122 0.0 0.0 0.00 0.44 0.00 98 1009.8
20260508092625 50 122 0.0 0.0 0.00 0.44 0.00 98 1009.7
20260508091605 50 122 0.0 0.0 0.00 0.44 0.00 98 1009.7
20260508090533 51 122 0.0 0.0 0.00 0.44 0.00 98 1009.7
20260508085515 51 122 0.0 0.0 0.00 0.44 0.00 98 1009.5
20260508084520 51 122 0.0 0.0 0.00 0.45 0.00 98 1009.5
20260508083507 51 122 0.0 0.0 0.00 0.46 0.00 98 1009.2
20260508081359 52 118 0.0 0.0 0.00 0.46 0.00 98 1009.1
20260508080328 52 152 0.0 1.0 0.00 0.46 0.00 98 1009.1
20260508075317 52 184 0.0 1.0 0.00 0.46 0.00 98 1008.8
20260508074306 52 124 0.0 1.0 0.00 0.46 0.00 98 1008.7
20260508073259 52 115 0.0 0.0 0.00 0.46 0.00 99 1008.7
20260508070006 52 127 0.0 0.0 0.00 0.47 0.00 98 1008.6
20260508065010 52 139 0.0 1.0 0.00 0.47 0.00 98 1008.6
20260508064001 51 144 0.0 0.0 0.00 0.47 0.00 98 1008.6
20260508063015 51 144 0.0 0.0 0.00 0.47 0.00 98 1008.6
20260508061948 52 144 0.0 0.0 0.00 0.47 0.00 98 1008.6
20260508060951 52 144 0.0 0.0 0.00 0.47 0.00 98 1008.6
20260508054831 51 144 0.0 0.0 0.00 0.47 0.00 98 1008.6
20260508053828 51 144 0.0 0.0 0.00 0.48 0.00 98 1008.5
20260508052807 51 144 0.0 0.0 0.00 0.49 0.00 98 1008.6
20260508051736 51 144 0.0 0.0 0.00 0.49 0.00 98 1008.6
20260508050711 51 144 0.0 0.0 0.00 0.49 0.00 98 1008.6
20260508045706 51 144 0.0 0.0 0.00 0.51 0.00 98 1008.5
20260508044640 51 144 0.0 0.0 0.00 0.53 0.00 97 1008.5
20260508043610 51 144 0.0 0.0 0.00 0.54 0.00 97 1008.4
20260508042610 51 129 0.0 0.0 0.00 0.55 0.00 97 1008.2
20260508041617 52 175 0.0 1.0 0.00 0.55 0.00 97 1008.2
20260508040632 52 175 0.0 0.0 0.00 0.55 0.00 97 1007.9
20260508035634 53 213 0.0 0.0 0.00 0.55 0.55 97 1007.9
20260508034639 53 213 0.0 0.0 0.00 0.55 0.55 97 1007.9
20260508033605 53 165 0.0 0.0 0.00 0.55 0.55 98 1007.8
20260508032547 53 165 0.0 0.0 0.00 0.55 0.55 98 1007.8
20260508031559 53 165 0.0 0.0 0.00 0.55 0.55 98 1007.8
20260508030538 53 165 0.0 0.0 0.00 0.55 0.55 98 1007.4
20260508025545 54 165 0.0 0.0 0.00 0.55 0.55 98 1007.3
20260508024608 54 165 0.0 0.0 0.00 0.55 0.55 98 1007.3
20260508023608 54 165 0.0 0.0 0.00 0.55 0.55 98 1007.3
20260508022606 54 165 0.0 0.0 0.00 0.55 0.55 98 1006.9
20260508020505 53 165 0.0 0.0 0.00 0.55 0.55 98 1006.8
20260508015523 53 165 0.0 0.0 0.00 0.55 0.55 98 1006.7
20260508014456 53 165 0.0 0.0 0.00 0.55 0.55 98 1006.7
20260508013452 54 165 0.0 0.0 0.00 0.55 0.55 97 1006.2
20260508012426 54 165 0.0 0.0 0.00 0.55 0.55 98 1006.4
20260508011354 54 165 0.0 0.0 0.00 0.55 0.55 97 1006.2
20260508010417 54 148 0.0 0.0 0.00 0.55 0.55 97 1006.2
20260508003100 54 148 0.0 0.0 0.00 0.55 0.55 97 1005.9